Theta_e
309 307 308 309 307 307 307 305 305 305 307 306 309 308 308 309 308 309 310 310 309 310 313 314 313 313 313 313 313 313 313 313 313 314 313 313 314 314 313 312 311 310 307 306
307 307 307 307 306 306 307 308 308 308 307 305 306 308 309 309 309 310 310 310 310 312 314 314 313 312 312 313 313 313 313 313 312 312 312 312 313 313 313 312 311 309 307 306
309 309 307 306 307 308 305 307 308 307 305 305 305 308 307 308 308 310 311 310 312 312 313 313 313 313 313 313 312 312 312 313 313 312 311 311 311 310 312 312 311 310 308 307
306 307 308 306 307 306 309 306 307 307 307 309 307 310 311 312 310 309 309 312 312 312 312 312 312 312 313 313 313 314 313 312 311 311 311 312 311 312 313 313 312 311 309 307
309 307 307 308 308 306 308 308 307 306 306 307 307 308 308 308 311 309 308 312 311 311 311 311 312 313 313 314 314 313 313 312 310 310 309 309 310 311 310 309 311 310 309 307
305 306 306 307 306 306 307 308 306 303 305 309 308 309 310 308 310 309 309 311 310 311 312 311 312 313 313 313 312 312 313 313 311 309 308 309 308 308 308 309 309 309 308 307
306 306 306 307 308 306 307 307 310 311 309 315 306 307 312 309 311 308 306 309 310 311 311 312 312 311 310 309 310 312 313 311 309 309 307 306 307 307 307 307 307 307 308 308
307 316 306 305 308 309 307 308 313 313 312 316 306 311 312 308 309 309 308 309 311 313 310 308 309 309 309 310 310 311 312 311 308 306 305 305 305 305 305 306 306 306 307 307
316 311 305 304 305 307 306 309 308 310 297 306 313 313 311 306 307 307 307 310 307 304 307 307 307 305 306 307 308 308 310 308 307 305 304 303 303 303 303 304 304 304 304 305
310 314 309 306 305 305 307 306 309 308 313 315 313 312 312 310 310 306 305 301 301 302 303 303 303 304 304 305 306 307 306 306 306 306 305 304 303 302 302 302 302 302 303 304
312 311 313 311 309 312 312 308 307 307 310 316 316 314 310 309 305 302 302 301 298 298 298 299 300 299 298 299 300 301 302 302 303 305 306 306 304 302 301 301 302 302 302 302
312 312 315 313 309 306 307 310 310 312 313 311 313 314 311 308 303 299 298 296 294 293 293 293 294 295 296 296 296 295 297 298 297 297 301 303 303 303 301 300 301 302 303 302
312 313 315 310 308 308 310 310 309 307 309 312 314 314 306 304 303 296 295 293 292 292 291 290 291 292 292 294 294 295 295 295 295 295 296 300 301 301 302 300 299 300 301 301
309 310 312 312 310 306 308 304 303 303 305 306 306 305 304 301 297 296 294 293 292 291 290 290 290 290 291 291 292 293 294 294 294 295 293 294 298 298 299 300 300 298 299 301
303 307 305 308 303 300 301 301 300 300 300 301 300 300 300 296 293 292 291 291 292 290 288 289 290 290 289 288 288 290 291 292 293 293 294 295 294 296 297 297 299 299 298 297
298 300 298 295 299 299 299 296 295 295 295 295 296 297 294 293 291 291 290 290 292 289 288 288 287 288 287 286 286 286 287 288 291 292 292 292 294 292 295 297 295 298 297 295
295 296 291 298 297 292 291 293 295 294 293 294 297 294 291 291 291 291 289 289 290 288 288 287 287 286 286 286 285 285 285 285 286 287 289 291 291 292 291 294 297 295 296 294
295 290 286 285 282 286 293 292 295 296 293 291 290 290 290 291 291 290 289 289 288 288 287 287 287 286 286 285 285 284 285 285 285 285 285 285 286 288 290 290 293 297 295 294
293 293 282 284 280 288 293 291 290 288 288 288 286 287 290 290 291 289 289 288 288 287 287 287 286 286 286 285 284 284 285 285 285 284 284 284 284 285 287 288 289 293 296 294
291 292 289 277 284 284 289 289 290 288 287 286 287 286 288 289 287 288 288 288 288 288 287 286 286 286 285 285 284 284 284 284 284 283 283 284 284 284 284 285 286 289 293 294
277 278 290 287 289 285 286 289 288 284 286 288 287 288 288 288 288 288 288 288 288 287 287 286 285 285 285 284 283 283 282 283 282 282 283 283 283 283 283 283 284 285 289 292
286 279 275 270 274 283 285 287 286 287 289 289 288 288 288 288 288 288 288 288 286 285 285 285 284 284 284 283 282 281 281 280 279 281 282 282 283 283 283 282 282 284 285 289
286 286 283 283 283 286 289 289 289 289 289 289 288 288 288 288 287 288 287 285 284 283 282 282 280 280 282 281 279 278 280 277 276 276 277 279 280 281 282 282 282 282 283 286
286 287 287 288 288 288 289 289 289 289 289 288 288 288 287 286 285 284 283 282 281 280 279 278 277 277 277 277 276 275 275 274 273 273 273 274 277 279 280 281 280 279 281 283
289 287 286 287 289 289 289 289 289 288 288 288 287 286 285 283 282 280 279 278 277 276 275 275 274 274 273 273 272 272 271 270 270 270 270 269 270 273 275 278 277 277 279 280
289 289 289 289 289 289 289 289 289 288 287 286 284 284 283 279 279 277 277 276 274 273 272 271 270 269 269 268 268 267 267 266 266 266 266 266 266 268 269 272 276 276 278 280
Wind_Speed
5 4 9 17 14 2 2 5 7 7 9 5 18 18 19 25 27 37 37 38 34 34 34 29 26 24 22 23 26 29 30 33 38 43 48 52 54 53 54 53 51 50 49 47
3 8 14 3 4 8 8 10 12 9 11 4 10 21 19 25 27 33 35 38 25 31 28 24 23 22 19 15 15 18 23 27 33 39 45 51 54 56 57 57 56 54 52 50
10 6 7 8 5 7 5 6 10 11 7 5 8 8 5 6 8 21 35 29 30 29 25 21 16 14 20 22 20 18 20 22 26 33 40 48 53 54 57 62 60 58 56 54
7 5 5 3 6 10 7 9 11 7 3 4 4 8 4 19 15 14 17 20 18 14 11 12 14 19 27 33 35 33 29 26 28 32 37 43 51 56 57 58 59 59 58 57
6 4 4 4 9 7 9 1 4 4 4 2 1 4 4 1 7 8 6 8 11 12 14 15 16 24 32 38 36 34 33 35 30 32 37 43 47 51 54 53 55 56 59 59
7 1 5 7 4 5 2 1 3 3 2 3 11 9 4 4 3 5 3 12 19 19 17 15 21 36 42 40 33 34 38 38 37 31 33 39 43 48 51 53 53 51 54 59
3 5 3 4 2 1 3 5 4 4 1 8 2 3 6 5 5 1 8 20 17 22 24 26 40 42 41 33 33 32 33 35 33 30 29 34 39 41 45 49 51 51 51 54
3 12 5 4 7 6 6 8 5 5 6 16 3 7 4 8 3 6 12 10 16 28 33 34 34 32 30 31 34 36 30 32 30 27 28 29 34 38 42 45 48 49 48 50
3 7 2 6 4 6 4 5 2 1 3 3 10 19 8 3 7 12 11 23 31 31 32 31 29 29 29 27 26 29 30 27 24 28 29 26 27 32 38 41 43 46 45 47
3 7 8 3 2 2 5 2 1 2 2 10 19 19 14 12 13 14 20 27 35 35 33 32 29 27 26 25 25 25 26 28 27 26 26 27 26 28 33 36 39 42 41 43
3 5 5 0 6 4 7 2 3 3 4 8 12 12 5 8 16 13 12 18 23 28 31 31 30 31 30 29 28 25 27 29 31 31 30 28 25 25 29 33 36 37 37 40
5 4 8 17 7 8 9 13 13 13 10 10 14 17 10 11 11 15 15 15 20 26 31 34 33 32 32 34 33 34 29 28 31 32 31 31 29 26 26 33 34 34 35 38
3 4 4 7 2 4 2 3 3 3 3 8 13 7 15 21 20 14 11 12 15 20 27 31 35 36 36 36 36 36 36 36 33 33 34 33 34 32 29 28 32 35 33 37
6 5 10 12 17 4 3 7 10 6 3 9 10 21 21 24 15 13 14 12 15 19 24 25 27 30 31 32 34 36 37 36 38 36 37 37 37 39 37 33 29 31 33 35
2 9 4 12 8 3 8 14 17 15 17 12 21 24 19 3 9 18 17 15 11 14 22 23 24 27 27 30 30 31 35 37 39 41 41 39 40 40 42 39 34 31 31 35
3 3 4 5 12 8 13 15 19 20 21 21 24 20 5 1 11 14 23 22 16 16 24 27 27 28 30 31 32 33 31 31 34 37 39 43 42 42 40 42 40 35 32 32
2 2 1 10 13 5 9 17 19 8 3 3 4 2 2 4 8 10 22 23 23 30 33 33 29 29 30 31 32 33 33 35 34 34 36 38 41 45 46 42 41 39 33 31
10 4 3 4 3 4 6 4 3 2 4 3 3 4 7 10 17 18 20 12 23 33 38 38 36 35 33 30 30 33 33 35 38 39 39 41 43 42 44 46 43 40 38 32
15 8 2 2 5 7 11 3 3 4 5 7 5 5 10 16 16 23 14 17 25 32 37 37 36 39 41 38 36 37 37 39 41 43 43 44 46 47 43 44 44 42 39 36
2 10 5 2 5 7 5 4 3 4 6 10 14 8 10 10 3 12 23 20 30 36 39 37 37 41 42 43 43 45 44 42 42 44 47 49 48 47 47 44 43 42 40 38
3 2 11 8 5 7 7 6 3 5 6 11 14 18 16 7 17 32 33 33 33 38 40 38 40 44 46 45 45 46 45 46 48 47 48 50 51 52 51 49 45 42 38 40
5 4 3 2 2 8 5 1 6 7 23 27 28 28 24 28 30 32 32 36 38 40 41 41 44 48 47 47 47 49 51 50 48 51 54 53 52 55 55 54 50 44 38 36
4 6 4 10 6 5 8 19 37 33 26 33 31 34 34 32 33 31 32 37 40 39 42 45 46 48 50 51 49 51 56 54 57 57 57 58 56 53 56 56 52 47 41 38
6 9 9 10 13 18 31 35 33 33 35 38 36 35 30 24 27 30 35 39 39 44 41 37 42 47 52 53 49 51 56 55 58 61 62 61 59 57 52 54 52 43 42 39
12 5 4 11 17 22 30 31 32 28 27 25 25 25 26 28 33 27 37 41 40 42 40 35 37 42 50 50 51 49 50 53 58 60 59 56 55 55 52 50 50 41 39 38
17 17 10 13 26 19 25 27 22 21 24 24 25 29 28 27 35 36 43 42 41 43 43 43 44 43 49 49 52 50 48 46 50 55 53 48 45 46 46 47 52 43 35 33
Wind_Direction
182 142 193 216 205 156 170 237 254 257 264 296 278 273 278 276 271 275 275 276 276 284 303 309 315 313 308 299 289 282 276 270 258 248 242 239 239 238 237 235 235 234 232 229
73 229 222 189 169 221 246 270 271 275 264 196 275 286 279 269 262 265 270 277 284 294 303 322 332 338 332 327 320 302 289 276 267 257 251 246 242 240 240 239 235 232 231 230
203 224 188 190 208 244 197 225 258 260 316 247 318 280 279 289 263 266 266 275 286 288 305 333 4 31 36 26 9 337 308 292 278 266 256 247 245 243 241 238 236 233 231 230
240 266 180 149 225 209 264 224 251 271 6 242 25 292 156 280 280 260 294 304 310 336 359 32 44 37 26 9 2 357 348 323 288 268 259 253 247 246 246 244 241 236 232 232
244 183 163 183 226 148 232 133 210 195 202 351 264 259 269 47 264 290 285 347 20 43 40 42 32 13 3 358 353 356 348 343 317 285 268 259 253 252 251 250 247 241 235 231
240 296 185 217 192 187 108 36 51 59 125 267 210 192 318 175 231 315 285 5 31 25 17 9 2 352 351 351 353 350 347 344 336 310 279 269 260 255 252 250 247 247 242 234
310 224 258 178 191 52 114 62 309 308 342 253 330 229 232 235 305 181 356 345 360 13 10 355 354 355 354 355 348 348 346 346 340 326 297 276 266 259 257 256 254 249 246 239
316 303 193 174 201 191 178 174 186 258 279 290 193 241 208 209 244 76 48 18 360 352 4 8 359 355 352 345 343 343 342 341 346 348 329 302 281 269 261 259 257 255 251 249
211 258 215 223 173 169 171 185 219 258 91 284 269 277 271 286 78 41 34 1 7 18 8 6 4 6 359 359 357 354 347 346 347 345 342 327 303 283 274 267 263 261 256 252
191 285 233 317 7 329 173 154 33 17 199 257 275 282 270 318 11 20 26 31 15 14 12 9 8 2 359 358 356 353 353 350 346 335 331 329 319 303 287 276 270 266 263 256
127 170 243 62 179 247 304 261 218 254 216 251 264 268 90 73 67 58 14 27 20 5 357 353 353 356 356 354 353 351 348 347 341 338 332 322 316 307 296 287 280 270 267 260
228 233 266 262 214 206 211 236 239 244 235 221 236 246 324 84 82 48 38 30 30 23 14 9 1 353 349 353 353 354 349 344 347 344 337 331 322 308 299 290 284 280 275 263
124 251 261 309 155 49 82 47 69 337 225 248 261 260 335 325 345 37 54 35 22 11 10 8 359 357 359 356 352 350 351 353 349 348 346 343 336 327 306 294 290 283 276 269
176 224 252 265 272 82 288 321 309 288 269 285 272 289 296 304 331 18 10 355 358 357 358 357 351 353 353 352 350 350 347 343 343 346 349 347 346 342 328 307 289 283 277 269
347 267 269 259 290 336 271 265 268 265 260 262 276 273 279 35 347 329 330 337 339 344 349 349 341 339 347 344 344 346 346 344 342 338 338 341 344 339 340 329 305 290 281 272
356 298 342 290 295 283 285 279 266 267 261 259 258 270 54 4 324 322 324 327 323 326 338 339 340 339 340 337 338 340 341 338 335 334 336 335 336 335 333 337 332 304 289 282
219 221 80 273 301 332 285 260 267 258 192 224 259 106 235 262 290 305 316 317 317 327 329 329 331 331 328 331 333 334 337 337 335 333 329 328 328 326 329 328 330 332 302 288
236 206 153 245 41 269 280 29 85 176 126 149 151 193 225 263 293 293 309 295 319 323 323 321 320 322 321 322 324 325 329 333 335 336 333 331 327 323 321 322 322 324 323 294
221 225 252 194 206 306 302 218 154 132 256 195 194 235 260 292 278 279 268 276 308 318 317 313 312 317 317 316 318 319 321 325 327 329 330 329 327 323 319 317 315 315 316 314
198 216 181 99 197 219 242 226 180 123 279 202 208 226 248 270 236 278 286 270 310 313 315 310 309 312 311 313 315 316 316 317 319 321 321 323 323 321 318 314 311 307 305 308
30 16 214 230 256 289 248 224 163 82 265 240 282 287 275 254 265 286 285 283 302 307 309 308 307 307 307 307 310 309 308 309 314 313 313 315 316 315 315 312 309 305 300 300
179 166 204 87 60 282 217 268 145 250 295 296 297 294 284 289 287 292 286 286 298 303 304 306 306 305 304 304 305 304 303 307 306 305 305 306 307 307 308 308 306 304 298 291
274 189 199 194 210 218 205 266 284 286 285 288 287 293 295 291 289 287 287 295 300 302 303 305 305 304 303 303 304 301 302 303 303 303 301 300 301 300 300 302 303 301 295 286
258 214 238 274 254 254 266 272 277 284 284 288 289 294 298 292 292 296 299 302 302 304 302 302 301 299 300 302 300 297 298 299 298 298 298 298 297 296 294 294 296 294 289 284
245 177 223 252 259 267 268 268 275 286 293 287 290 295 298 301 302 307 303 303 302 301 302 300 297 296 295 296 294 294 294 295 295 295 295 294 294 294 292 287 287 285 281 280
245 249 242 254 261 261 272 282 289 288 290 292 295 297 301 306 307 310 305 307 307 307 306 304 301 298 297 296 294 294 293 292 291 292 292 291 291 290 289 285 284 281 274 266